Location: Brede
(50.9167°N, 0.6000°E)
Time: 21:00:43
(UTC+00:00)

Vanguard 1 Rocket - Pass Details

Date: 04 December 2020
Orbit: 655 x 4221 km, 34.3° (Epoch: 17 January)

Event Time Altitude Azimuth Distance (km) Brightness Sun altitude
Exits shadow 02:12:27 48° 161° (SSE) 4,438 10.5 -49.9°
Drops below altitude 10° 02:27:12 10° 111° (ESE) 5,559 11.7 -47.9°
Sets 02:30:48 0° 106° (ESE) 6,175 12.1 -47.4°
